When you browse on this site, cookies collect data to enhance your experience and personalize the content and advertising you see.
Visit our Privacy Policy to learn more. By continuing to use the site, you agree to this use of cookies and data.
  • în România
  • Lista ţărilor
  • Pe 7 zile
  • Temperatura apei
  • Hartă satelitară
  • Meteo pe hartă
  • Widget-uri
  • user-avatar
    Intrare

    Meteo pe oră la Chelmsford

    Astăzi, 24 Iunie, Luni

    Timp Temperatura Precipitaţii Vânt Presiune Umiditate
    00:00 +18°C° 0 mm 2 m/s 758 mmHg 85%
    01:00 +18°C° 0.3 mm 3 m/s 758 mmHg 88%
    02:00 +18°C° 0.3 mm 3 m/s 757 mmHg 91%
    03:00 +19°C° 0.3 mm 3 m/s 757 mmHg 94%
    04:00 +19°C° 0.2 mm 3 m/s 757 mmHg 93%
    05:00 +20°C° 0.2 mm 3 m/s 757 mmHg 93%
    06:00 +21°C° 0.2 mm 3 m/s 757 mmHg 92%
    07:00 +22°C° 0.1 mm 3 m/s 757 mmHg 89%
    08:00 +24°C° 0.1 mm 3 m/s 758 mmHg 85%
    09:00 +25°C° 0.1 mm 3 m/s 758 mmHg 81%
    10:00 +25°C° 0.1 mm 3 m/s 758 mmHg 79%
    11:00 +25°C° 0.1 mm 4 m/s 759 mmHg 76%
    12:00 +25°C° 0.1 mm 5 m/s 759 mmHg 74%
    13:00 +23°C° 0 mm 4 m/s 759 mmHg 73%
    14:00 +24°C° 0 mm 3 m/s 759 mmHg 72%
    15:00 +24°C° 0 mm 2 m/s 760 mmHg 72%
    16:00 +24°C° 0 mm 2 m/s 760 mmHg 72%
    17:00 +24°C° 0 mm 1 m/s 760 mmHg 73%
    18:00 +22°C° 0 mm 0 m/s 760 mmHg 73%
    19:00 +21°C° 0 mm 0 m/s 760 mmHg 74%
    20:00 +20°C° 0 mm 0 m/s 760 mmHg 75%
    21:00 +19°C° 0 mm 0 m/s 760 mmHg 76%
    22:00 +20°C° 0 mm 1 m/s 760 mmHg 78%
    23:00 +19°C° 0 mm 2 m/s 760 mmHg 79%

    Mâine, 25 Iunie, Marţi

    Timp Temperatura Precipitaţii Vânt Presiune Umiditate
    00:00 +19°C° 0 mm 2 m/s 760 mmHg 81%
    01:00 +19°C° 0.1 mm 3 m/s 759 mmHg 83%
    02:00 +18°C° 0.1 mm 3 m/s 759 mmHg 86%
    03:00 +18°C° 0.1 mm 4 m/s 759 mmHg 88%
    04:00 +18°C° 0.7 mm 4 m/s 759 mmHg 90%
    05:00 +19°C° 0.7 mm 4 m/s 758 mmHg 92%
    06:00 +19°C° 0.7 mm 4 m/s 758 mmHg 93%
    07:00 +20°C° 0.2 mm 4 m/s 758 mmHg 91%
    08:00 +21°C° 0.2 mm 4 m/s 759 mmHg 88%
    09:00 +22°C° 0.2 mm 3 m/s 759 mmHg 86%
    10:00 +22°C° 0 mm 3 m/s 759 mmHg 86%
    11:00 +24°C° 0 mm 2 m/s 759 mmHg 83%
    12:00 +25°C° 0 mm 1 m/s 759 mmHg 80%
    13:00 +25°C° 0 mm 2 m/s 759 mmHg 79%
    14:00 +26°C° 0 mm 2 m/s 760 mmHg 78%
    15:00 +26°C° 0 mm 2 m/s 760 mmHg 78%
    16:00 +25°C° 0.1 mm 2 m/s 760 mmHg 80%
    17:00 +25°C° 0.1 mm 2 m/s 761 mmHg 83%
    18:00 +24°C° 0.1 mm 3 m/s 761 mmHg 86%
    19:00 +22°C° 0 mm 3 m/s 762 mmHg 88%
    20:00 +21°C° 0 mm 3 m/s 762 mmHg 90%
    21:00 +19°C° 0 mm 3 m/s 763 mmHg 92%
    22:00 +19°C° 0 mm 3 m/s 763 mmHg 93%
    23:00 +18°C° 0 mm 4 m/s 764 mmHg 93%

    Poimâine, 26 Iunie, Miercuri

    Timp Temperatura Precipitaţii Vânt Presiune Umiditate
    00:00 +17°C° 0 mm 4 m/s 764 mmHg 94%
    01:00 +17°C° 0 mm 4 m/s 764 mmHg 93%
    02:00 +17°C° 0 mm 4 m/s 764 mmHg 93%
    03:00 +17°C° 0 mm 4 m/s 765 mmHg 92%
    04:00 +17°C° 0 mm 4 m/s 765 mmHg 91%
    05:00 +17°C° 0 mm 4 m/s 765 mmHg 91%
    06:00 +17°C° 0 mm 4 m/s 766 mmHg 90%
    07:00 +17°C° 0 mm 4 m/s 766 mmHg 89%
    08:00 +17°C° 0 mm 4 m/s 767 mmHg 88%
    09:00 +18°C° 0 mm 4 m/s 767 mmHg 87%
    10:00 +18°C° 0 mm 4 m/s 767 mmHg 85%
    11:00 +19°C° 0 mm 5 m/s 767 mmHg 84%
    12:00 +19°C° 0 mm 5 m/s 768 mmHg 82%
    13:00 +19°C° 0 mm 5 m/s 767 mmHg 82%
    14:00 +19°C° 0 mm 5 m/s 767 mmHg 81%
    15:00 +19°C° 0 mm 5 m/s 767 mmHg 81%
    16:00 +19°C° 0 mm 5 m/s 767 mmHg 82%
    17:00 +17°C° 0 mm 6 m/s 767 mmHg 83%
    18:00 +17°C° 0 mm 6 m/s 767 mmHg 84%
    19:00 +16°C° 0 mm 6 m/s 767 mmHg 85%
    20:00 +15°C° 0 mm 6 m/s 767 mmHg 86%
    21:00 +14°C° 0 mm 6 m/s 767 mmHg 88%
    22:00 +14°C° 0 mm 6 m/s 768 mmHg 88%
    23:00 +14°C° 0 mm 6 m/s 768 mmHg 87%

    27 Iunie, Joi

    Timp Temperatura Precipitaţii Vânt Presiune Umiditate
    00:00 +14°C° 0 mm 6 m/s 768 mmHg 87%
    01:00 +14°C° 0 mm 6 m/s 768 mmHg 87%
    02:00 +14°C° 0 mm 6 m/s 767 mmHg 87%
    03:00 +14°C° 0 mm 6 m/s 767 mmHg 87%
    04:00 +14°C° 0 mm 6 m/s 767 mmHg 87%
    05:00 +14°C° 0 mm 6 m/s 767 mmHg 87%
    06:00 +14°C° 0 mm 6 m/s 767 mmHg 88%
    07:00 +15°C° 0 mm 6 m/s 767 mmHg 82%
    08:00 +16°C° 0 mm 7 m/s 767 mmHg 77%
    09:00 +17°C° 0 mm 7 m/s 767 mmHg 72%
    10:00 +18°C° 0 mm 7 m/s 767 mmHg 68%
    11:00 +18°C° 0 mm 7 m/s 767 mmHg 64%
    12:00 +20°C° 0 mm 7 m/s 767 mmHg 60%
    13:00 +20°C° 0 mm 7 m/s 766 mmHg 59%
    14:00 +20°C° 0 mm 7 m/s 766 mmHg 59%
    15:00 +20°C° 0 mm 7 m/s 766 mmHg 58%
    16:00 +18°C° 0 mm 7 m/s 766 mmHg 62%
    17:00 +18°C° 0 mm 7 m/s 765 mmHg 67%
    18:00 +17°C° 0 mm 7 m/s 765 mmHg 71%
    19:00 +16°C° 0 mm 6 m/s 765 mmHg 76%
    20:00 +14°C° 0 mm 6 m/s 765 mmHg 81%
    21:00 +13°C° 0 mm 6 m/s 765 mmHg 86%
    22:00 +13°C° 0 mm 5 m/s 765 mmHg 88%
    23:00 +12°C° 0 mm 5 m/s 765 mmHg 90%

    28 Iunie, Vineri

    Timp Temperatura Precipitaţii Vânt Presiune Umiditate
    00:00 +12°C° 0 mm 4 m/s 765 mmHg 92%
    01:00 +12°C° 0 mm 4 m/s 765 mmHg 93%
    02:00 +12°C° 0 mm 4 m/s 765 mmHg 94%
    03:00 +12°C° 0 mm 4 m/s 764 mmHg 94%
    04:00 +13°C° 0 mm 5 m/s 764 mmHg 92%
    05:00 +14°C° 0 mm 5 m/s 764 mmHg 89%
    06:00 +15°C° 0 mm 6 m/s 764 mmHg 86%
    07:00 +16°C° 0 mm 6 m/s 764 mmHg 82%
    08:00 +17°C° 0 mm 6 m/s 764 mmHg 77%
    09:00 +19°C° 0 mm 6 m/s 763 mmHg 73%
    10:00 +20°C° 0 mm 6 m/s 763 mmHg 70%
    11:00 +21°C° 0 mm 6 m/s 763 mmHg 68%
    12:00 +21°C° 0 mm 6 m/s 763 mmHg 65%
    13:00 +21°C° 0 mm 7 m/s 762 mmHg 65%
    14:00 +21°C° 0 mm 7 m/s 762 mmHg 64%
    15:00 +21°C° 0 mm 7 m/s 761 mmHg 64%
    16:00 +21°C° 0 mm 6 m/s 761 mmHg 67%
    17:00 +20°C° 0 mm 6 m/s 760 mmHg 70%
    18:00 +20°C° 0 mm 6 m/s 760 mmHg 73%
    19:00 +19°C° 0 mm 6 m/s 760 mmHg 74%
    20:00 +17°C° 0 mm 5 m/s 760 mmHg 75%
    21:00 +17°C° 0 mm 5 m/s 760 mmHg 76%
    22:00 +17°C° 0 mm 5 m/s 759 mmHg 77%
    23:00 +17°C° 0 mm 5 m/s 759 mmHg 79%

    29 Iunie, Sâmbătă

    Timp Temperatura Precipitaţii Vânt Presiune Umiditate
    00:00 +18°C° 0 mm 4 m/s 759 mmHg 80%
    01:00 +18°C° 0 mm 4 m/s 758 mmHg 81%
    02:00 +17°C° 0 mm 4 m/s 758 mmHg 82%
    03:00 +17°C° 0 mm 4 m/s 757 mmHg 83%
    04:00 +18°C° 0 mm 4 m/s 757 mmHg 82%
    05:00 +19°C° 0 mm 4 m/s 757 mmHg 81%
    06:00 +20°C° 0 mm 4 m/s 757 mmHg 80%
    07:00 +22°C° 0 mm 4 m/s 757 mmHg 77%
    08:00 +23°C° 0 mm 4 m/s 756 mmHg 74%
    09:00 +26°C° 0 mm 4 m/s 756 mmHg 71%
    10:00 +27°C° 0 mm 4 m/s 756 mmHg 74%
    11:00 +27°C° 0 mm 4 m/s 756 mmHg 77%
    12:00 +28°C° 0 mm 4 m/s 756 mmHg 81%
    13:00 +28°C° 0 mm 4 m/s 756 mmHg 79%
    14:00 +28°C° 0 mm 4 m/s 756 mmHg 77%
    15:00 +28°C° 0 mm 5 m/s 756 mmHg 75%
    16:00 +27°C° 0 mm 4 m/s 756 mmHg 73%
    17:00 +26°C° 0 mm 4 m/s 756 mmHg 70%
    18:00 +25°C° 0 mm 4 m/s 756 mmHg 67%
    19:00 +22°C° 0 mm 4 m/s 756 mmHg 71%
    20:00 +20°C° 0 mm 4 m/s 757 mmHg 74%
    21:00 +18°C° 0 mm 4 m/s 757 mmHg 77%
    22:00 +17°C° 0 mm 4 m/s 757 mmHg 79%
    23:00 +17°C° 0 mm 4 m/s 757 mmHg 80%
    Arată mai mult